Location: Newark
(44.2003°N, 3.2583°E)
Time: 14:09:49
(UTC+00:00)

SR - Pass Details

Date: 25 October 2019
Orbit: 574 x 882 km, 66.7° (Epoch: 12 November)

Event Time Altitude Azimuth Distance (km) Brightness Sun altitude
Rises 19:10:48 0° 164° (SSE) 3,034 - -26.3°
Reaches altitude 10° 19:13:43 10° 145° (SE) 2,185 - -26.8°
Maximum altitude 19:16:59 18° 104° (ESE) 1,790 - -27.4°
Drops below altitude 10° 19:20:25 10° 64° (ENE) 2,332 - -28.0°
Sets 19:23:40 0° 46° (NE) 3,327 - -28.6°
